Wind_Speed
13 13 12 11 10 9 8 7 7 6 6 6 6 6 6 6 6 7 7 6 6 6 6 5 6 7 8 9 9 9 9 8 9 9 9 10 11 12 13 14 14 14 15 15 16 17 13 12 16 18 17 19 19 20 21 20 20 23 25 27 31 28 24 33 43 40 35 30 24 24 30 36 39 37 37 37 35 32 25 21 24 23 20 20 14 11 21
14 13 12 11 10 9 8 8 7 7 8 8 7 7 7 6 6 7 7 6 6 7 7 6 6 7 8 9 9 8 8 8 8 9 9 10 11 12 12 13 13 14 15 14 15 16 14 12 16 17 17 18 19 20 21 19 19 23 26 27 29 24 23 31 33 29 32 31 26 31 38 38 37 37 37 35 33 29 27 31 30 17 13 18 13 12 28
14 13 13 12 11 10 10 10 9 9 9 9 9 8 7 5 5 6 6 6 6 7 7 7 6 7 8 8 8 8 7 7 8 9 10 10 10 11 11 12 12 13 13 14 15 16 15 13 14 17 18 18 19 21 21 18 19 24 27 28 28 25 25 26 18 11 13 17 20 30 39 40 38 37 35 33 30 25 26 33 29 17 20 25 18 22 43
15 14 14 13 13 12 12 12 11 10 10 10 9 7 6 4 4 5 6 7 6 5 6 8 7 7 7 7 7 7 6 6 7 8 9 10 10 10 11 12 12 12 13 13 14 15 15 14 16 17 18 19 20 22 21 18 20 24 27 29 29 28 27 25 22 19 19 23 27 28 31 36 38 38 36 32 24 21 26 28 24 24 30 32 30 38 54
16 15 15 14 13 12 12 11 10 9 9 8 6 5 4 3 2 3 3 5 5 4 5 7 7 7 6 6 6 6 5 6 7 7 8 9 10 10 11 12 12 12 14 14 15 16 15 15 17 18 18 19 20 22 20 18 20 25 28 29 30 30 29 27 30 32 30 30 30 28 29 34 35 35 34 29 21 23 29 26 25 29 27 30 45 54 53
16 15 14 13 12 11 10 10 9 8 7 6 5 4 3 2 1 2 2 2 4 4 4 6 6 6 6 5 6 6 5 6 6 7 8 9 9 10 11 12 12 13 14 14 15 16 15 15 16 17 17 18 19 21 19 17 21 26 28 30 31 30 30 32 35 37 34 29 27 30 33 34 34 32 28 23 23 30 32 29 31 32 25 34 53 55 48
16 15 14 13 12 11 11 10 9 9 8 6 5 5 4 3 2 2 3 2 2 3 3 4 5 6 5 5 5 5 5 5 6 7 8 9 9 9 10 11 11 12 13 14 15 15 15 16 16 17 17 18 20 21 17 18 23 27 29 32 32 30 33 34 36 41 37 28 29 35 37 35 33 26 19 20 28 32 32 33 38 40 41 46 50 49 47
17 16 15 14 13 12 11 11 10 9 8 7 7 6 5 4 3 2 2 2 1 2 2 3 4 5 4 4 5 5 5 5 5 6 8 9 9 9 10 11 11 12 12 13 14 15 16 17 17 18 18 18 22 21 18 20 24 26 29 31 30 32 35 34 36 42 38 32 34 40 38 32 25 17 17 25 34 34 34 39 46 49 51 50 47 47 48
17 16 15 14 13 12 11 10 9 8 8 8 7 7 6 6 5 3 2 2 1 1 1 2 3 4 4 4 4 5 5 5 5 6 7 8 8 8 9 10 11 12 12 13 14 15 16 17 17 19 18 19 22 22 20 22 23 25 29 30 30 33 35 36 37 38 38 37 39 43 37 21 12 14 24 31 33 34 38 44 48 47 49 51 50 48 48
15 14 13 12 11 11 10 9 8 7 7 7 7 7 6 6 6 5 4 3 2 2 1 1 2 3 4 5 5 4 5 4 5 6 7 8 8 8 9 10 11 11 12 13 14 15 16 16 17 18 18 19 22 22 22 22 23 26 28 29 31 33 36 39 36 34 39 40 41 44 33 12 7 21 32 32 31 34 42 49 50 47 49 50 45 44 52
13 12 12 11 10 10 9 8 8 7 6 6 6 6 6 6 6 6 5 4 3 3 3 2 2 3 4 5 5 4 5 4 5 6 7 7 8 8 9 10 11 11 12 13 14 15 16 16 16 17 18 18 21 21 20 20 22 25 28 29 31 33 35 36 31 32 38 41 45 43 24 8 16 28 28 29 31 38 47 54 54 53 52 46 41 49 61
11 10 9 9 9 9 9 8 8 7 6 6 5 5 5 5 6 6 5 5 5 4 4 3 3 3 4 5 5 5 5 5 5 6 7 7 8 8 9 10 11 11 12 13 14 15 16 16 15 17 17 18 20 19 18 19 21 24 27 28 30 34 35 33 32 31 32 37 41 31 14 13 26 25 21 26 35 46 56 58 56 54 49 43 47 58 66
8 8 7 7 7 8 8 8 8 7 6 5 5 5 5 5 6 6 6 6 5 5 5 5 4 4 4 5 5 5 5 5 5 6 7 7 8 8 9 10 10 11 11 12 13 15 16 15 15 16 16 17 19 17 15 17 20 23 26 27 30 34 33 32 33 30 29 32 26 13 15 24 22 17 22 32 42 52 57 59 58 49 38 40 54 64 66
7 6 6 6 6 7 8 8 8 7 6 6 5 5 5 6 6 6 6 6 6 6 6 5 5 5 5 5 6 5 5 5 5 6 7 7 8 8 9 10 10 10 11 12 13 15 16 15 15 16 16 16 17 15 14 18 21 23 25 27 29 31 31 32 31 26 27 32 28 24 25 20 14 20 32 40 47 51 52 55 52 39 33 47 61 66 65
7 6 5 5 7 8 8 8 8 7 7 6 6 6 6 6 7 7 7 7 7 7 7 6 6 6 6 6 6 6 5 5 6 6 7 8 8 8 9 10 10 10 11 12 13 15 16 15 16 16 15 17 18 14 13 18 21 21 24 26 28 29 29 29 27 24 26 28 27 25 18 10 16 29 36 43 50 53 53 51 41 33 43 59 65 64 64
5 5 5 7 8 8 8 8 8 8 7 7 7 6 6 7 7 7 7 8 8 8 8 7 6 7 6 6 6 6 6 6 6 7 7 8 8 8 9 10 10 10 11 12 13 14 15 15 16 16 15 17 18 16 16 20 22 21 23 26 28 28 28 28 26 25 27 24 16 10 8 14 26 33 39 47 52 54 54 44 35 44 59 63 63 63 61
4 5 7 9 10 10 9 9 9 8 8 8 7 7 7 7 8 8 8 8 8 9 8 7 7 7 7 6 6 6 6 6 6 7 8 8 8 9 9 9 10 9 10 11 13 14 15 15 16 16 15 17 18 17 19 22 24 24 25 27 28 28 28 28 27 27 28 24 16 13 14 20 28 36 46 52 52 51 43 30 36 59 65 60 62 61 57
6 7 9 10 11 11 11 10 10 9 9 9 8 8 8 8 8 8 8 8 9 9 8 7 7 7 7 6 6 6 6 7 7 7 8 8 8 9 9 9 10 10 10 11 12 13 15 15 16 15 15 17 18 18 19 22 24 25 27 29 29 28 28 29 29 31 30 23 20 23 22 23 31 43 51 53 51 47 36 29 45 63 62 58 61 58 55
8 9 10 11 12 12 11 10 10 9 9 9 9 8 8 8 8 8 8 9 9 9 8 7 7 8 7 6 6 6 6 7 7 7 8 9 9 9 9 9 10 10 9 10 11 13 15 15 15 15 15 17 18 18 20 23 23 23 25 28 28 28 28 29 31 32 30 26 26 26 24 30 42 49 50 49 48 44 41 45 54 58 57 58 57 54 55
10 11 12 12 12 12 12 10 10 9 9 9 9 9 8 8 8 9 9 9 9 9 8 7 7 8 7 6 6 6 7 7 8 8 9 9 9 10 9 9 10 10 9 10 11 13 14 15 15 15 15 17 19 19 21 23 22 21 24 26 26 25 26 28 32 32 30 27 23 18 20 35 48 48 47 49 46 42 46 53 54 54 56 56 53 53 55
11 12 12 13 13 12 12 11 10 9 9 9 9 9 9 9 9 10 9 9 9 8 8 8 8 7 7 6 6 7 7 8 8 9 9 10 10 10 10 10 10 10 10 10 10 12 13 14 15 15 16 17 19 20 22 24 22 21 24 24 24 25 25 25 28 28 25 23 20 19 26 40 46 44 44 45 43 43 47 50 53 55 55 52 52 54 53
12 12 12 12 12 12 12 11 10 10 9 9 10 10 9 10 10 10 9 9 9 8 8 8 8 7 7 7 6 7 7 8 9 9 10 11 10 10 10 11 11 10 10 10 10 12 14 14 15 15 16 18 20 21 22 23 22 23 25 24 24 26 27 27 28 28 26 26 28 32 38 41 41 41 42 42 42 44 46 48 51 53 51 51 52 53 52
12 12 12 12 12 12 12 11 11 10 10 10 10 10 10 10 10 9 8 8 8 8 8 8 7 7 7 7 6 7 7 8 9 10 10 11 11 11 11 11 11 11 10 10 10 11 13 14 15 16 16 18 21 22 23 23 23 24 25 25 26 27 28 29 31 32 33 32 33 36 40 41 40 41 41 42 44 45 46 49 51 51 50 49 50 50 51
11 11 12 12 12 12 12 12 11 11 10 10 10 10 10 10 9 8 8 8 8 8 8 8 7 7 7 7 6 7 8 9 10 11 11 11 11 12 11 11 12 12 11 11 11 12 13 14 15 17 17 18 20 22 23 23 24 25 27 27 28 29 30 31 33 35 36 35 35 37 41 41 40 40 41 43 45 45 46 49 51 50 49 48 48 49 51
11 12 12 12 13 13 12 12 12 11 10 10 10 10 10 9 9 8 8 8 8 8 8 7 7 7 7 7 7 7 8 9 11 11 11 12 12 12 11 11 12 12 12 11 11 12 13 14 16 17 18 19 20 22 24 24 25 26 27 28 29 30 31 32 35 36 37 37 38 40 42 41 39 40 43 45 45 45 47 49 49 48 47 47 47 49 51
13 13 13 13 13 13 13 12 12 11 10 10 9 9 9 9 8 8 8 8 8 8 7 7 6 6 7 7 7 8 9 10 11 12 12 12 12 12 12 12 12 13 12 12 12 13 14 15 16 18 19 20 21 23 24 25 26 27 28 29 30 32 32 33 36 38 38 38 40 42 43 43 42 43 44 45 45 46 47 49 48 47 47 47 47 48 50
14 14 14 14 13 13 13 12 12 11 10 9 9 8 8 7 7 7 7 7 7 6 5 5 6 6 6 7 7 9 10 11 12 13 12 12 13 13 12 12 12 13 13 12 12 14 15 16 17 18 19 20 22 23 24 26 27 27 29 30 31 33 33 33 36 39 39 39 40 42 43 44 44 43 44 45 45 46 48 49 48 47 48 49 49 49 49
15 15 15 14 14 14 13 12 12 11 10 9 8 7 7 6 7 6 6 5 6 5 5 5 5 6 7 7 8 9 11 12 12 13 13 13 13 13 13 13 13 13 13 13 13 14 16 16 17 19 20 21 23 24 25 26 27 27 28 31 32 33 34 34 35 38 39 38 39 40 41 43 43 43 44 44 44 46 48 48 48 48 49 49 50 50 50
15 15 15 15 15 15 14 13 12 11 9 8 7 7 6 6 6 5 4 4 5 5 5 5 6 6 7 8 9 10 12 12 13 14 14 14 14 14 13 13 13 13 13 13 13 14 16 17 17 19 21 22 24 26 25 26 27 27 28 31 33 34 35 35 36 38 39 39 39 40 40 42 43 43 44 44 44 46 47 48 48 49 49 48 49 49 50
16 16 16 16 15 15 15 14 14 12 9 8 7 6 6 5 5 4 4 4 5 5 5 6 6 7 8 9 10 11 12 13 14 14 14 14 14 14 14 14 14 14 14 14 14 15 16 17 18 20 21 22 25 27 27 27 28 28 29 32 34 35 36 37 37 38 39 39 39 39 40 41 43 43 43 44 44 45 47 48 49 48 47 47 48 48 49
16 17 17 17 16 16 15 15 14 12 10 8 7 6 5 5 5 4 4 5 5 5 6 6 7 8 9 9 10 12 13 14 14 14 14 14 14 14 14 14 14 14 14 15 15 15 16 18 19 20 21 22 25 27 28 28 29 30 31 33 34 35 36 37 38 39 39 39 39 39 39 40 42 43 43 44 44 45 47 48 48 47 46 46 47 48 48
16 17 17 18 17 16 15 15 14 12 10 8 7 6 5 5 5 5 5 5 6 6 6 7 8 9 10 11 11 13 13 14 14 15 14 14 15 15 15 15 15 15 15 15 15 16 17 18 20 21 22 23 25 28 27 27 28 30 32 33 34 35 37 38 38 39 39 39 39 40 39 40 41 42 44 44 45 46 48 48 47 46 45 45 45 46 47
18 18 17 17 16 15 14 14 13 12 10 8 7 6 6 6 6 6 6 6 6 6 7 8 9 10 11 12 13 13 14 14 15 15 15 15 15 15 15 16 16 15 15 15 16 17 18 18 20 22 23 23 25 27 27 26 27 31 33 33 35 35 36 37 38 38 39 39 39 40 40 41 42 42 44 45 45 46 47 47 46 45 45 45 45 46 46
19 19 18 17 15 13 12 12 12 11 9 8 7 7 6 6 6 6 6 7 7 7 8 9 10 12 13 13 14 14 15 15 16 15 15 15 15 15 16 16 16 16 15 16 16 17 18 19 21 22 23 23 24 27 27 27 29 32 33 34 35 36 36 37 38 38 39 39 39 39 40 41 42 43 44 45 45 45 46 47 47 46 46 46 46 47 47
21 20 18 16 14 12 11 11 11 11 9 8 7 7 7 7 7 7 7 7 8 9 9 10 11 13 14 14 15 15 16 16 16 15 15 16 15 15 16 16 16 16 16 16 16 17 18 20 22 23 24 23 23 25 28 29 31 32 33 34 35 36 36 37 38 38 39 39 39 39 39 40 41 42 43 44 45 45 46 47 47 47 47 47 47 47 47
22 20 18 15 13 11 10 10 10 10 9 8 7 7 7 7 7 8 8 9 9 10 11 11 12 13 14 15 15 16 16 16 16 16 16 16 15 16 16 16 16 17 17 16 16 17 19 21 23 25 25 24 23 24 28 31 32 33 34 35 36 36 37 37 38 38 39 39 39 39 39 40 41 42 43 44 45 45 46 47 47 47 47 47 47 47 47
21 19 17 15 12 10 9 9 9 9 8 8 8 8 8 8 9 9 9 10 10 11 11 12 13 13 14 15 15 16 16 16 16 16 15 15 16 16 15 15 17 18 17 16 16 18 20 22 24 26 25 22 23 26 29 32 33 34 35 36 37 37 38 38 38 38 39 39 40 40 40 40 41 42 43 44 44 45 46 47 47 48 47 48 48 48 48
20 18 16 14 11 9 9 9 9 9 8 8 8 9 9 9 10 10 10 11 11 11 11 11 12 13 14 15 16 16 15 16 17 16 15 16 16 15 15 17 18 18 18 17 17 19 21 23 25 26 23 22 24 29 31 32 34 35 36 37 37 38 38 38 38 38 39 39 40 40 40 40 40 41 43 43 44 44 45 46 47 47 48 48 48 47 47
19 18 16 14 11 10 9 9 9 9 9 9 9 10 10 10 11 11 10 10 10 9 10 11 12 13 13 15 15 15 16 16 16 15 15 15 15 14 15 17 18 18 18 19 19 20 22 24 26 26 24 25 28 31 32 33 34 35 36 37 38 38 39 39 39 39 39 39 40 41 41 41 40 41 42 43 44 44 45 46 47 47 47 47 47 47 47
18 17 15 13 11 10 10 10 9 9 9 9 10 11 11 11 11 11 10 9 8 9 10 11 12 13 14 15 16 16 16 16 14 14 14 15 15 15 16 18 18 18 19 19 19 21 23 26 26 26 26 29 31 33 33 34 36 36 37 38 38 39 39 39 39 39 39 40 40 41 41 41 41 41 42 43 43 44 45 46 46 47 47 47 47 46 47
17 16 15 13 11 11 11 10 10 10 10 10 10 11 11 10 10 9 9 8 8 9 11 12 13 14 15 16 17 17 16 15 15 14 15 15 15 16 17 17 17 17 16 18 20 23 25 26 25 26 28 32 34 34 35 36 37 37 38 39 39 39 40 40 40 40 40 40 41 42 42 42 42 42 42 43 43 44 44 45 46 46 46 47 46 46 46
17 16 15 13 12 12 12 10 10 11 10 10 10 11 10 9 9 9 8 8 9 11 13 14 15 16 16 17 18 18 17 16 16 16 17 17 17 17 18 18 16 15 17 20 23 25 25 25 26 28 31 34 35 35 36 37 38 38 39 40 40 41 41 41 40 41 41 41 42 42 42 43 43 42 42 43 43 43 44 44 45 46 46 46 46 45 45
17 16 15 13 13 14 13 11 11 11 10 10 11 11 10 9 9 9 8 9 11 13 14 15 16 17 18 19 20 19 18 18 18 19 19 18 18 18 19 19 18 18 21 23 25 25 25 25 27 31 34 35 36 37 37 38 38 39 40 40 41 42 42 42 42 41 41 42 42 43 43 44 43 43 43 43 44 43 43 44 45 46 46 46 45 45 44
17 16 15 14 13 14 13 12 12 12 11 11 11 11 11 10 10 10 10 12 13 14 16 17 18 19 20 21 22 21 20 20 20 20 20 19 19 19 19 19 20 22 24 25 25 26 25 25 28 33 35 36 36 37 38 38 39 40 40 41 42 42 43 43 42 42 42 42 43 44 45 44 44 44 44 43 43 43 43 43 44 45 46 45 45 45 44
17 17 16 14 14 14 14 12 12 12 12 11 12 12 12 12 12 12 13 14 15 16 17 18 19 21 22 23 23 22 22 22 22 22 21 22 22 21 19 20 23 25 25 25 26 26 26 28 32 35 37 37 37 38 38 39 40 40 41 41 42 43 43 44 44 43 43 43 43 44 45 45 45 45 44 44 43 43 43 43 44 45 45 45 45 45 44
15 16 16 15 14 14 14 13 12 12 12 13 13 13 13 14 14 14 15 15 16 17 18 20 21 22 23 24 24 23 23 23 24 23 22 22 23 22 22 24 25 23 21 23 26 28 29 32 35 37 38 38 39 40 40 40 41 42 42 42 43 44 44 45 45 44 43 43 43 44 45 46 46 46 45 44 43 43 43 42 43 44 45 45 44 44 44
15 15 15 15 14 14 14 14 13 13 13 14 14 15 15 15 16 16 17 17 18 19 20 21 23 23 24 24 25 24 24 24 25 24 23 22 23 24 25 25 23 20 21 24 28 31 33 35 38 39 39 39 41 42 43 43 43 43 43 44 44 45 46 46 45 45 44 44 43 43 44 45 46 47 46 45 44 43 43 42 42 43 44 44 44 43 43
15 15 15 15 15 15 15 15 15 15 15 15 15 16 16 17 17 18 18 19 20 21 22 23 24 25 25 26 26 26 26 25 25 25 24 23 22 23 23 23 24 25 25 28 32 35 37 38 39 39 40 40 41 43 44 45 45 45 46 46 46 46 47 47 46 46 45 44 43 43 43 44 46 47 47 46 44 43 43 42 42 42 43 44 44 43 42
15 15 15 15 16 16 16 17 17 17 17 17 18 18 19 19 19 20 20 21 22 23 24 25 26 27 27 27 28 29 28 25 24 26 27 26 24 23 24 26 29 30 30 32 36 40 41 40 40 40 40 41 41 43 45 46 47 47 48 48 48 48 48 48 48 47 46 45 43 42 42 43 45 46 47 47 45 44 43 42 42 42 42 43 43 43 42
16 16 16 17 17 18 18 19 19 19 19 20 21 21 22 22 22 23 24 24 25 26 27 28 28 29 29 30 30 30 28 27 28 31 32 31 28 27 28 30 32 33 35 37 40 42 42 43 43 42 41 41 42 43 45 47 48 49 49 50 50 50 50 50 49 49 48 47 44 42 42 42 44 45 47 48 47 45 43 42 42 41 41 42 43 43 42
19 18 18 19 19 20 20 21 21 22 22 23 23 24 24 25 26 26 27 28 28 29 29 30 31 31 32 32 31 31 31 32 33 34 34 32 30 31 33 35 36 37 40 41 42 43 44 45 46 45 43 42 42 42 44 46 47 49 50 51 51 52 52 51 51 50 50 49 46 43 42 42 43 44 46 48 48 46 44 42 42 41 41 41 42 42 42
22 22 22 22 22 22 23 23 23 24 24 25 25 26 26 27 28 28 29 30 31 31 32 32 33 33 34 34 34 35 35 35 36 36 36 35 34 35 37 39 40 42 43 45 44 44 45 46 47 47 46 44 42 42 44 45 47 49 50 51 52 52 53 53 52 52 52 50 48 46 43 42 42 43 45 47 48 47 44 43 41 41 41 41 41 41 41
Wind_Direction
128 130 131 131 132 129 127 126 125 125 120 113 110 103 100 102 103 104 100 100 112 106 96 100 110 114 113 111 110 104 98 92 80 70 61 53 45 38 30 21 16 13 10 11 10 7 5 1 359 358 357 357 355 355 354 350 349 352 353 353 350 348 345 337 333 337 344 346 345 344 344 343 341 341 342 339 335 332 325 315 314 306 299 310 306 287 309
127 127 125 122 121 120 121 124 123 122 119 114 110 103 99 105 110 110 107 110 112 106 99 96 103 110 109 106 104 96 90 86 76 67 57 50 44 35 28 20 15 11 9 9 7 6 6 1 357 357 355 355 355 354 351 347 345 349 352 352 351 352 350 343 340 341 344 345 342 338 337 337 335 336 338 334 328 324 323 327 327 313 301 321 318 289 307
121 119 117 115 117 119 120 120 119 118 115 110 103 97 96 105 113 116 120 116 103 99 100 97 94 95 96 98 97 90 84 78 70 63 53 45 41 33 25 19 14 11 9 6 5 6 5 2 358 356 354 354 354 353 350 344 341 346 350 350 350 351 351 350 347 340 331 327 324 326 327 327 328 332 333 329 326 327 330 331 329 320 313 314 304 297 311
115 114 115 117 118 119 118 117 117 114 109 102 97 96 97 103 111 119 123 114 104 98 95 94 90 81 81 86 87 84 81 71 63 56 47 40 35 29 22 15 12 10 8 7 6 5 4 2 358 355 354 353 352 352 348 340 339 345 347 349 350 349 349 349 341 327 316 312 316 325 326 322 325 332 329 324 324 328 332 332 328 324 319 315 316 318 318
114 115 117 118 117 116 115 114 111 107 101 97 96 96 94 99 113 117 116 112 113 111 91 88 86 76 72 76 77 77 73 63 57 48 40 35 29 23 18 12 8 7 6 6 6 4 3 2 358 355 353 352 351 350 346 339 338 343 347 349 349 346 345 345 337 329 329 328 327 332 331 324 326 327 321 319 322 328 334 337 336 335 327 316 323 326 321
115 115 115 115 112 110 107 104 100 95 91 89 88 85 79 76 110 112 109 121 124 113 88 80 80 75 68 64 66 69 65 58 52 43 36 29 23 20 14 9 5 4 5 4 3 2 0 360 358 354 351 350 351 349 345 339 338 343 347 347 346 345 343 341 336 332 336 339 335 335 334 330 327 321 313 315 321 329 336 339 340 341 328 314 322 325 320
114 112 110 107 104 100 96 92 89 84 81 78 75 74 68 60 72 90 92 104 119 111 89 74 73 71 62 52 52 55 56 52 43 36 31 23 19 16 10 5 2 2 3 2 1 360 357 358 358 354 351 350 350 350 347 342 340 342 345 343 344 346 342 340 336 333 339 346 340 338 338 332 325 316 308 316 325 332 338 339 340 338 327 322 324 322 321
109 106 104 101 97 93 89 85 81 77 74 70 66 64 58 49 44 60 77 82 93 105 92 69 59 60 52 42 42 41 44 45 35 30 24 16 15 11 5 1 358 359 1 1 1 0 358 358 356 355 353 349 349 351 347 342 339 340 341 341 343 344 341 342 337 332 341 350 342 339 341 333 319 305 307 322 329 333 336 337 338 335 329 328 327 323 327
106 104 101 97 94 89 84 79 74 69 65 61 57 53 51 46 33 28 49 67 52 48 67 59 46 44 39 31 31 30 33 37 30 25 17 10 8 4 360 358 354 356 359 359 1 1 359 359 356 354 352 349 349 348 343 341 337 336 339 339 341 343 341 343 340 331 337 347 341 340 343 333 303 313 325 330 331 331 332 336 339 335 330 330 330 329 331
102 100 96 92 88 83 77 72 65 60 55 51 47 42 40 41 33 25 27 32 26 2 357 9 17 21 22 20 19 17 20 26 24 20 12 4 2 358 355 355 353 355 358 358 1 1 360 360 357 354 351 347 347 345 340 340 336 335 339 339 340 343 342 344 344 330 332 343 341 339 347 347 325 335 330 324 325 328 333 337 339 336 333 331 330 328 328
96 93 89 84 80 72 65 58 48 44 40 37 38 33 28 28 27 24 17 13 9 345 330 325 340 1 8 9 7 4 7 15 16 15 9 359 356 353 350 352 352 354 356 357 360 1 0 0 357 354 351 345 344 343 339 339 337 335 339 339 340 343 342 344 344 331 331 340 340 342 358 10 327 327 319 314 324 334 337 337 337 335 333 331 327 325 327
92 89 84 78 71 60 51 41 30 24 18 16 18 17 16 15 15 16 12 7 358 336 324 321 324 338 349 353 357 356 358 5 9 8 4 354 352 349 347 349 350 351 354 355 359 1 0 360 357 353 351 346 344 342 338 339 339 336 339 341 340 341 342 344 345 335 330 338 344 351 4 331 318 316 312 318 330 335 334 333 333 334 331 328 327 329 331
85 83 78 70 57 40 28 20 13 7 359 357 356 356 360 359 359 3 3 358 350 333 321 319 318 321 327 339 350 350 350 358 1 1 357 351 348 345 343 347 346 346 351 354 358 1 0 359 358 354 352 347 344 342 338 340 341 339 341 342 340 341 343 345 346 341 335 339 345 342 325 324 323 319 323 330 335 336 334 331 332 333 329 326 329 332 334
78 76 71 54 30 14 6 2 358 354 347 342 338 337 344 344 342 348 349 345 343 333 319 313 313 312 313 327 342 345 342 347 352 354 352 346 345 343 341 342 341 342 349 353 357 1 1 359 358 355 352 349 347 346 343 343 343 341 341 342 341 342 343 345 346 346 341 336 330 324 327 334 337 333 333 334 334 335 334 329 327 328 328 330 333 333 334
77 70 54 26 8 0 358 355 352 348 340 334 327 326 332 333 330 333 335 335 335 329 320 312 310 308 307 319 336 339 335 340 345 347 347 342 341 340 337 338 339 340 346 352 358 0 360 359 360 359 356 353 351 348 344 343 343 342 341 342 342 342 344 346 345 342 341 338 331 332 337 334 331 332 331 330 331 333 331 326 324 331 335 334 334 334 334
69 48 23 9 4 360 356 353 349 343 334 327 323 321 323 324 322 321 324 326 327 324 319 311 306 304 304 314 330 333 331 337 341 341 342 340 337 336 334 335 338 339 343 351 356 358 359 1 3 3 359 354 350 343 340 341 342 342 343 344 344 343 344 346 344 341 341 338 328 317 303 309 323 326 325 329 332 333 331 328 330 337 337 335 334 335 335
31 11 0 357 356 354 352 349 345 339 333 327 323 319 318 317 316 316 318 320 320 320 316 309 302 299 301 311 325 326 326 332 336 336 337 336 333 332 332 334 337 339 341 347 352 355 358 1 4 3 359 354 350 344 341 341 341 342 345 345 346 346 345 345 345 343 340 335 319 305 302 308 318 325 329 331 332 332 335 336 333 335 336 334 334 335 336
357 350 346 344 344 344 344 342 339 335 330 324 319 316 314 312 311 312 315 316 316 316 313 306 299 296 299 309 318 319 321 326 330 331 333 333 330 330 331 335 338 338 340 343 348 352 356 359 3 2 357 354 352 348 344 343 341 342 343 344 346 347 346 346 345 342 340 335 317 311 316 321 327 331 332 330 331 337 342 333 326 330 333 333 334 336 338
338 334 332 332 333 333 334 333 331 327 322 318 316 313 310 308 308 311 313 311 312 313 310 304 297 295 298 306 312 314 318 322 325 328 331 332 329 328 330 334 336 336 337 340 345 350 354 357 359 359 356 354 353 348 345 344 342 342 344 343 344 344 343 344 344 342 340 334 322 320 329 335 334 333 330 331 336 339 334 327 327 330 331 332 335 338 339
325 324 324 325 325 325 324 323 321 317 313 311 310 308 307 309 311 311 309 308 308 309 306 300 294 293 297 301 305 310 315 320 323 326 329 330 329 328 330 332 334 336 336 338 343 349 353 355 356 356 355 353 351 348 345 345 345 345 345 344 342 341 340 340 343 342 337 333 332 334 332 329 331 332 332 334 337 333 327 328 332 333 332 333 337 339 340
320 321 320 321 320 319 318 317 315 310 306 305 305 307 312 315 312 307 304 305 305 304 303 299 292 291 292 293 298 306 314 319 322 324 327 328 327 328 328 329 332 335 334 335 339 345 351 354 353 353 352 350 350 348 345 345 346 346 347 345 341 340 338 334 337 339 333 325 327 327 323 325 330 332 330 330 331 330 329 331 333 335 335 336 337 340 341
320 320 319 319 318 316 315 314 313 309 307 307 310 314 317 313 307 303 301 302 302 300 298 294 288 287 286 286 294 305 311 317 321 323 324 325 325 325 325 326 330 332 330 331 334 341 348 352 350 349 349 348 348 348 346 344 344 345 347 345 339 339 337 331 331 333 329 325 327 329 329 332 333 331 329 329 331 332 333 334 334 335 337 337 338 340 342
324 324 324 323 321 319 316 315 316 314 312 311 312 314 311 305 302 302 300 300 299 297 294 288 284 284 281 280 290 302 309 316 321 321 321 323 323 323 323 324 328 328 326 328 331 335 342 346 346 347 347 345 346 346 346 345 342 342 345 343 339 339 337 332 331 331 330 333 335 332 332 335 334 331 331 332 333 335 337 337 337 337 338 339 339 340 342
332 331 331 329 326 324 322 320 318 316 313 311 309 306 305 303 303 302 300 299 298 294 289 285 281 280 277 279 290 303 309 316 320 319 319 321 321 321 321 322 325 326 324 326 329 331 336 340 343 345 344 341 342 343 343 344 341 340 343 343 341 341 338 333 332 331 330 334 337 333 332 336 336 332 331 333 336 339 339 338 339 339 339 341 341 342 343
341 339 337 335 333 331 329 326 324 320 317 313 309 307 307 306 303 300 298 297 295 290 286 284 281 277 275 278 290 303 309 315 318 318 318 319 320 319 319 320 322 323 322 323 327 331 333 334 337 342 341 339 338 339 339 341 339 339 343 344 341 340 338 335 333 332 331 334 336 336 335 337 336 333 333 335 338 339 340 340 340 339 338 341 344 345 345
352 351 349 346 343 341 339 337 333 329 325 320 316 313 310 306 301 299 296 295 295 290 282 280 280 278 276 278 289 303 310 314 318 318 316 318 320 318 316 317 320 321 322 323 326 329 330 329 332 337 338 336 335 335 335 337 337 338 342 344 341 339 339 336 332 333 336 338 338 338 337 338 338 336 335 337 339 340 341 341 340 338 339 343 346 347 346
4 2 359 356 352 349 346 343 339 335 332 327 322 315 309 304 301 298 295 297 300 291 280 280 280 278 280 281 289 303 311 314 317 317 316 317 319 317 315 316 318 321 323 323 324 327 328 327 328 331 333 333 333 333 332 333 336 338 340 342 341 338 338 337 333 334 338 339 338 338 338 338 338 336 334 337 340 341 342 342 341 341 343 345 347 348 348
9 6 2 359 356 352 349 347 343 338 333 328 322 316 312 309 305 301 300 301 296 285 283 290 288 283 286 288 292 303 311 314 317 317 315 317 318 316 315 315 317 321 323 322 323 325 325 325 324 326 329 330 329 330 331 331 334 338 339 339 340 338 338 337 335 335 338 338 338 338 338 336 335 335 335 338 340 341 342 343 343 344 346 346 346 347 348
7 4 1 358 354 351 349 348 345 340 335 331 327 324 322 318 311 308 305 297 290 287 290 296 295 293 296 296 297 304 311 314 317 317 315 316 317 315 315 316 318 321 322 321 321 322 322 323 323 322 325 327 326 327 329 329 332 338 339 338 339 339 338 338 337 336 338 339 338 339 339 336 335 335 336 338 340 341 342 344 345 347 347 346 346 347 348
4 360 358 355 352 349 348 347 346 342 338 338 338 336 333 328 320 317 309 299 300 299 296 298 301 303 305 304 303 307 311 313 316 316 315 315 316 315 315 317 318 321 322 320 320 321 320 321 322 321 323 323 322 323 327 327 330 337 339 338 338 339 339 338 338 337 338 339 339 339 339 337 335 336 336 338 340 342 343 346 348 348 347 345 346 348 349
360 356 353 350 347 346 346 346 345 343 343 346 347 344 341 337 334 334 326 316 313 305 297 302 308 308 310 310 309 310 312 313 315 316 315 315 316 314 314 318 319 321 322 320 318 319 319 319 321 321 321 320 318 320 324 325 328 335 338 338 338 339 339 338 338 337 337 338 339 340 340 338 336 336 336 338 341 343 345 348 349 348 346 346 347 348 349
356 352 347 343 341 343 344 344 345 345 346 349 349 348 348 345 340 337 328 319 313 305 304 310 311 311 315 316 313 313 314 314 316 318 316 316 316 314 315 319 319 320 321 319 318 319 319 319 320 320 320 318 316 319 323 326 328 333 337 337 338 339 339 338 338 337 337 338 338 339 340 339 337 336 336 338 342 345 346 348 348 347 347 347 348 349 349
349 344 339 336 336 338 341 342 343 343 342 344 349 353 352 346 338 332 325 318 314 311 311 312 313 316 320 319 316 317 318 317 318 319 317 317 318 316 316 319 320 319 319 318 318 318 319 320 319 319 320 318 315 317 323 329 331 333 336 337 337 338 339 338 337 337 338 338 337 338 339 339 338 337 337 340 343 345 346 347 348 348 348 348 349 350 350
342 337 335 334 334 335 339 342 342 341 341 345 350 351 347 341 335 328 323 323 321 316 315 316 317 320 323 321 320 321 321 320 321 321 320 319 319 317 318 319 320 319 318 317 317 317 317 319 319 320 321 320 314 315 324 332 333 333 335 336 336 337 337 337 337 337 337 337 337 337 338 339 339 338 338 340 342 344 345 346 348 349 349 349 350 350 351
339 338 338 338 335 335 338 341 342 342 345 346 348 347 345 341 335 328 324 325 324 321 320 321 322 323 324 323 323 323 323 323 323 322 322 320 318 318 319 319 319 319 318 317 317 316 316 318 319 320 321 321 317 318 325 331 332 332 333 334 335 335 336 336 337 337 337 337 337 337 338 339 339 339 338 339 341 343 345 347 348 349 350 350 350 351 351
340 342 345 345 341 337 339 341 342 343 345 345 346 347 343 337 332 328 325 324 324 325 326 325 325 326 326 325 325 326 325 324 324 324 323 321 320 320 320 320 320 320 319 318 318 316 316 318 319 320 323 323 321 322 327 330 331 331 332 332 333 334 334 335 335 335 336 336 336 336 337 339 339 339 338 339 340 343 345 347 348 349 349 350 350 351 352
345 348 351 350 347 342 341 342 342 343 344 344 345 344 340 334 331 329 327 325 325 327 328 327 328 328 327 327 328 328 326 325 326 325 324 323 323 323 321 321 322 322 321 321 320 318 318 318 319 323 329 330 326 327 330 331 330 330 330 331 332 332 332 333 333 334 335 336 335 336 337 339 339 339 338 338 339 342 344 347 348 349 349 350 351 351 352
349 352 355 355 353 348 344 343 343 342 342 342 341 338 335 332 330 330 329 328 326 328 329 329 329 329 329 330 331 330 329 328 328 327 326 325 325 323 321 322 324 323 322 323 321 319 319 320 321 327 335 337 332 332 333 333 331 331 331 331 332 332 331 331 332 332 333 334 335 335 336 338 338 338 337 337 338 341 344 346 348 349 349 350 351 351 351
353 356 358 358 355 351 347 344 343 342 341 339 336 333 332 331 331 332 333 331 330 331 332 332 332 333 333 334 335 334 333 331 328 327 326 325 324 322 321 322 323 321 319 319 319 319 320 320 322 328 336 338 336 336 336 335 334 334 333 333 333 332 332 331 331 331 332 333 333 334 335 336 337 338 337 336 337 340 343 345 347 348 349 350 350 351 351
356 358 359 357 354 352 349 345 342 342 339 334 331 332 333 335 336 337 338 339 339 339 338 338 339 340 339 339 339 338 336 333 331 329 326 323 321 319 319 320 319 317 315 316 318 319 319 319 322 328 334 338 338 338 337 337 337 336 335 334 334 333 333 333 332 331 331 331 332 332 333 334 335 336 336 336 337 339 342 344 346 347 348 349 350 351 351
356 358 359 358 356 354 351 346 342 341 337 333 333 336 339 341 343 343 344 346 347 345 343 343 342 342 341 340 340 339 338 335 332 328 325 324 322 318 318 319 317 312 311 314 317 317 316 316 322 330 335 337 338 338 337 337 337 336 335 335 334 333 334 334 333 332 331 331 331 331 331 332 334 335 335 335 336 338 340 342 344 346 348 349 350 350 350
355 357 359 360 360 358 354 350 346 343 340 338 341 345 347 349 351 352 351 349 345 343 343 343 342 341 341 340 339 338 336 334 332 330 327 326 322 319 318 318 314 308 309 313 314 314 313 315 322 331 337 338 338 338 337 337 336 335 334 334 333 333 333 334 333 333 332 331 330 330 330 331 332 333 334 335 336 337 339 341 343 345 347 348 349 350 350
354 355 356 358 359 358 356 354 351 350 348 347 349 352 355 356 356 355 351 345 340 339 340 341 340 339 338 337 337 336 333 331 331 330 326 323 322 320 318 315 311 310 312 312 311 311 313 316 324 332 337 338 337 337 337 336 335 334 334 333 333 333 333 333 333 333 332 332 331 330 329 330 331 332 333 334 334 335 337 339 341 343 345 347 348 349 349
355 355 355 356 356 356 357 358 356 355 355 353 351 351 352 351 350 348 343 340 337 337 338 339 338 337 337 336 335 334 331 329 329 327 323 322 320 317 313 310 310 311 312 310 308 311 316 322 328 332 335 336 336 336 336 336 335 334 333 333 332 332 331 332 332 332 332 332 332 331 330 329 330 331 332 332 332 333 335 337 339 342 344 345 347 348 349
355 356 356 355 356 357 359 359 357 356 355 353 350 348 345 343 341 339 337 336 335 335 335 335 335 335 334 333 332 331 330 327 325 324 322 319 316 312 310 309 309 308 307 305 306 311 320 327 329 330 332 333 334 333 334 335 334 334 334 333 331 331 331 331 331 331 331 332 332 331 330 330 330 330 330 330 330 331 333 335 338 340 342 343 345 347 348
351 354 354 355 358 359 359 357 354 351 348 344 342 338 336 334 333 332 331 331 331 331 331 331 332 331 331 331 330 330 328 326 323 322 320 316 312 311 311 309 307 303 300 301 307 317 324 327 327 327 328 330 331 331 332 333 333 333 334 333 331 331 331 330 330 331 331 332 332 332 331 330 330 330 329 329 328 329 331 333 335 337 340 342 343 345 347
347 349 350 352 355 357 356 354 350 344 340 337 335 333 331 330 329 328 327 327 327 328 327 327 328 329 329 329 328 328 328 326 322 320 318 315 311 311 310 308 304 300 298 302 313 322 325 325 325 326 327 328 329 329 330 331 331 332 333 333 331 331 331 330 330 330 331 332 332 331 331 331 330 330 329 328 327 327 328 330 333 335 338 340 341 343 345
343 344 345 347 347 348 348 348 345 340 336 335 335 334 332 332 330 329 328 327 327 326 326 327 328 328 328 328 327 327 327 325 321 319 319 315 311 309 308 305 304 305 308 312 317 321 322 321 323 324 325 327 328 328 327 328 329 330 331 331 331 331 330 330 330 329 330 331 331 330 330 331 330 329 328 327 326 325 326 328 330 333 335 337 339 341 343
335 336 339 339 338 338 339 339 338 336 334 334 334 334 333 332 332 332 330 329 328 327 327 327 327 327 326 326 325 325 324 322 319 318 317 313 309 305 300 299 303 311 317 319 318 318 318 319 320 322 323 325 326 326 326 326 327 328 329 329 330 330 330 330 329 329 329 330 330 330 330 330 330 329 328 326 325 324 324 325 327 330 332 335 337 339 341
324 326 329 331 330 330 331 332 332 331 331 331 332 332 332 331 331 330 329 327 326 326 325 326 325 324 324 324 323 322 321 320 316 314 313 311 307 301 298 301 308 316 318 317 316 317 318 318 318 320 321 323 324 325 325 325 326 327 327 327 328 329 329 330 329 328 328 329 330 330 329 329 329 328 327 326 325 323 322 323 325 327 330 332 335 337 338
313 315 318 321 322 323 323 324 325 326 326 326 326 328 329 328 327 327 326 326 324 323 323 323 323 322 321 321 319 318 317 315 312 311 311 310 306 301 301 307 314 315 314 313 315 317 317 316 317 318 319 320 322 322 323 323 324 325 325 326 326 327 327 328 328 328 328 328 329 328 328 328 328 327 326 324 323 323 322 321 322 324 327 330 332 334 336
305 306 309 311 313 314 315 316 318 319 320 320 320 321 322 322 321 321 321 321 320 320 320 319 319 319 318 316 314 313 312 310 308 310 312 312 309 307 308 311 312 311 311 312 315 316 316 316 316 316 317 318 319 319 320 321 322 323 324 324 324 324 325 325 326 327 328 328 328 327 327 327 327 326 325 323 322 322 321 320 320 321 324 326 329 331 334
Height
3159 3160 3161 3162 3163 3163 3164 3164 3165 3165 3166 3166 3166 3165 3165 3165 3165 3165 3165 3165 3165 3165 3165 3165 3165 3165 3164 3164 3163 3163 3163 3162 3162 3162 3161 3161 3160 3160 3159 3158 3157 3155 3154 3153 3151 3150 3148 3147 3145 3144 3143 3142 3140 3139 3137 3135 3134 3133 3130 3128 3125 3121 3117 3110 3102 3098 3097 3097 3096 3096 3095 3093 3091 3089 3087 3086 3083 3080 3080 3076 3069 3065 3060 3057 3055 3043 3034
3161 3162 3163 3163 3164 3165 3165 3166 3166 3166 3166 3167 3166 3166 3166 3166 3166 3166 3166 3166 3166 3166 3166 3166 3166 3165 3164 3164 3164 3163 3163 3162 3162 3162 3161 3161 3161 3160 3159 3158 3157 3156 3154 3153 3151 3150 3148 3147 3146 3144 3143 3142 3141 3139 3137 3135 3133 3132 3130 3129 3126 3123 3120 3115 3106 3099 3094 3092 3092 3091 3091 3091 3090 3089 3087 3085 3082 3078 3075 3071 3068 3064 3059 3059 3055 3041 3031
3163 3164 3164 3165 3165 3166 3166 3167 3167 3168 3168 3167 3167 3167 3167 3167 3167 3167 3167 3167 3167 3166 3166 3166 3166 3165 3165 3164 3164 3163 3163 3163 3162 3162 3162 3161 3161 3160 3159 3158 3157 3156 3154 3153 3151 3150 3148 3147 3146 3145 3143 3142 3140 3138 3136 3135 3133 3131 3130 3128 3126 3124 3122 3119 3116 3113 3109 3102 3098 3094 3091 3089 3088 3088 3086 3083 3079 3076 3073 3069 3066 3061 3056 3057 3055 3041 3029
3164 3165 3166 3166 3167 3167 3168 3168 3169 3169 3169 3168 3168 3168 3169 3169 3168 3168 3168 3168 3167 3167 3167 3166 3166 3166 3165 3164 3164 3163 3163 3163 3162 3162 3162 3161 3161 3160 3159 3158 3157 3156 3154 3153 3151 3150 3148 3147 3146 3144 3143 3141 3140 3138 3136 3134 3132 3131 3129 3127 3125 3123 3122 3120 3118 3117 3115 3110 3104 3100 3095 3090 3086 3084 3082 3080 3077 3075 3073 3070 3066 3061 3053 3049 3049 3042 3028
3166 3167 3167 3168 3169 3169 3170 3170 3170 3170 3170 3170 3170 3170 3170 3170 3169 3169 3169 3168 3168 3168 3168 3167 3166 3166 3165 3165 3164 3164 3163 3163 3163 3162 3162 3162 3161 3160 3159 3158 3156 3155 3154 3152 3151 3150 3148 3147 3146 3144 3143 3141 3140 3138 3136 3134 3132 3130 3128 3126 3124 3121 3119 3118 3116 3113 3111 3107 3102 3099 3096 3090 3086 3082 3079 3077 3076 3073 3071 3069 3065 3062 3054 3042 3040 3040 3029
3168 3169 3170 3170 3171 3171 3171 3171 3171 3171 3171 3171 3171 3171 3170 3170 3170 3170 3169 3169 3169 3168 3168 3167 3166 3166 3166 3165 3164 3164 3164 3163 3163 3163 3162 3162 3161 3160 3159 3157 3156 3155 3154 3152 3151 3150 3149 3148 3146 3145 3143 3141 3140 3138 3136 3134 3132 3129 3127 3124 3123 3120 3117 3115 3112 3108 3106 3104 3100 3096 3093 3088 3085 3081 3077 3075 3074 3070 3068 3066 3063 3061 3057 3046 3037 3036 3030
3170 3171 3172 3172 3173 3173 3173 3173 3172 3172 3172 3172 3172 3172 3171 3171 3171 3170 3170 3169 3169 3169 3168 3168 3167 3166 3166 3165 3165 3164 3164 3163 3163 3163 3162 3162 3161 3160 3158 3157 3156 3155 3154 3153 3151 3150 3149 3147 3146 3145 3143 3141 3139 3137 3135 3133 3131 3128 3126 3123 3121 3119 3116 3113 3108 3103 3101 3100 3097 3092 3089 3085 3082 3078 3076 3074 3072 3069 3065 3063 3061 3058 3055 3048 3039 3033 3028
3173 3173 3174 3174 3174 3174 3174 3174 3174 3174 3173 3173 3173 3173 3172 3172 3171 3171 3170 3170 3170 3169 3169 3168 3167 3166 3166 3166 3165 3165 3164 3164 3163 3163 3162 3161 3160 3159 3158 3157 3156 3155 3154 3153 3151 3150 3148 3147 3145 3143 3142 3140 3138 3137 3135 3133 3131 3128 3126 3123 3120 3117 3114 3111 3106 3099 3095 3095 3092 3089 3086 3082 3078 3076 3075 3073 3070 3066 3063 3061 3058 3053 3046 3042 3036 3029 3023
3175 3175 3175 3176 3176 3176 3176 3175 3175 3175 3175 3174 3174 3173 3173 3173 3172 3172 3171 3171 3170 3170 3169 3168 3167 3167 3166 3166 3166 3165 3164 3164 3163 3163 3162 3161 3160 3159 3158 3157 3156 3155 3154 3152 3151 3149 3148 3146 3144 3143 3141 3139 3138 3136 3134 3133 3131 3128 3126 3123 3120 3117 3112 3108 3104 3096 3091 3091 3088 3084 3082 3079 3076 3075 3073 3069 3067 3065 3062 3060 3056 3050 3042 3035 3030 3023 3017
3177 3177 3177 3177 3177 3177 3177 3177 3176 3176 3176 3175 3175 3174 3174 3173 3173 3172 3171 3171 3170 3170 3169 3168 3167 3167 3167 3166 3166 3165 3165 3164 3163 3163 3162 3161 3160 3159 3158 3157 3156 3154 3153 3152 3150 3149 3147 3146 3144 3142 3141 3139 3137 3135 3133 3132 3130 3127 3125 3122 3119 3116 3111 3107 3103 3094 3088 3087 3085 3081 3077 3074 3073 3073 3071 3068 3066 3064 3061 3058 3054 3049 3042 3034 3027 3022 3018
3179 3179 3179 3179 3179 3179 3178 3178 3178 3177 3177 3176 3176 3175 3174 3174 3173 3172 3172 3171 3170 3170 3169 3168 3168 3167 3167 3166 3166 3165 3165 3164 3163 3163 3162 3161 3160 3159 3158 3156 3155 3154 3153 3151 3150 3149 3147 3146 3144 3143 3141 3139 3137 3135 3133 3132 3130 3127 3124 3121 3117 3115 3111 3107 3104 3096 3087 3084 3081 3075 3072 3073 3073 3073 3071 3068 3066 3062 3057 3054 3051 3046 3041 3036 3031 3026 3019
3180 3180 3180 3180 3180 3180 3179 3179 3178 3178 3177 3177 3176 3175 3175 3174 3174 3173 3172 3171 3171 3170 3169 3168 3168 3167 3167 3166 3166 3165 3165 3164 3163 3162 3162 3161 3159 3158 3157 3156 3155 3153 3152 3151 3150 3148 3147 3146 3144 3142 3141 3139 3137 3135 3133 3131 3129 3126 3123 3120 3116 3113 3110 3106 3103 3097 3090 3085 3080 3074 3073 3076 3075 3072 3070 3069 3066 3061 3055 3051 3050 3045 3039 3035 3031 3024 3015
3182 3182 3182 3181 3181 3181 3180 3180 3179 3178 3178 3177 3176 3176 3175 3174 3174 3173 3172 3171 3171 3170 3169 3168 3168 3167 3167 3166 3166 3165 3165 3164 3163 3162 3161 3160 3159 3158 3157 3156 3154 3153 3152 3151 3150 3148 3147 3145 3144 3142 3141 3139 3137 3135 3133 3131 3129 3126 3123 3120 3116 3112 3109 3106 3102 3097 3090 3086 3086 3084 3079 3075 3072 3070 3069 3066 3063 3059 3052 3045 3043 3042 3037 3032 3026 3018 3012
3183 3183 3183 3182 3182 3181 3181 3180 3179 3178 3178 3177 3176 3176 3175 3174 3174 3173 3172 3171 3170 3170 3169 3168 3168 3167 3167 3166 3166 3165 3164 3164 3163 3162 3161 3160 3159 3158 3156 3155 3154 3153 3152 3150 3149 3148 3146 3145 3144 3142 3141 3139 3137 3134 3132 3130 3128 3125 3123 3120 3117 3113 3109 3106 3102 3099 3094 3088 3086 3082 3075 3071 3071 3070 3067 3063 3059 3058 3053 3043 3038 3038 3035 3029 3021 3013 3007
3184 3184 3184 3183 3183 3182 3181 3180 3179 3178 3177 3177 3176 3175 3175 3174 3174 3173 3172 3171 3170 3169 3169 3168 3167 3167 3166 3166 3165 3165 3164 3163 3162 3161 3161 3159 3158 3157 3156 3155 3154 3152 3151 3150 3148 3147 3146 3144 3143 3141 3139 3138 3135 3133 3131 3130 3127 3125 3123 3120 3117 3113 3110 3107 3103 3100 3097 3093 3086 3078 3072 3070 3070 3069 3067 3065 3061 3057 3053 3045 3038 3035 3032 3026 3019 3011 3004
3185 3185 3184 3184 3183 3182 3181 3180 3179 3178 3177 3176 3176 3175 3174 3174 3173 3172 3172 3171 3170 3169 3168 3167 3167 3167 3166 3165 3165 3164 3164 3163 3162 3161 3160 3159 3158 3157 3156 3155 3153 3152 3151 3149 3148 3147 3146 3144 3142 3141 3139 3137 3135 3133 3131 3129 3126 3124 3122 3119 3116 3112 3109 3106 3104 3100 3097 3095 3091 3087 3080 3072 3069 3069 3067 3064 3059 3054 3048 3041 3034 3032 3028 3022 3016 3009 3002
3186 3185 3184 3183 3182 3181 3181 3180 3179 3178 3177 3176 3175 3174 3174 3173 3173 3172 3171 3170 3169 3168 3168 3167 3166 3166 3166 3165 3164 3164 3163 3162 3162 3160 3159 3158 3157 3156 3156 3154 3153 3152 3150 3149 3148 3146 3145 3143 3142 3140 3139 3137 3135 3133 3130 3127 3124 3122 3120 3117 3114 3111 3107 3104 3102 3099 3096 3094 3091 3088 3083 3075 3072 3069 3064 3059 3056 3052 3046 3036 3028 3025 3024 3019 3013 3007 3001
3185 3185 3184 3183 3182 3181 3180 3179 3178 3177 3176 3175 3175 3174 3173 3173 3172 3171 3170 3170 3169 3168 3167 3166 3166 3165 3165 3164 3164 3163 3163 3162 3161 3160 3159 3158 3157 3156 3155 3153 3152 3151 3150 3149 3147 3146 3144 3143 3141 3140 3138 3136 3135 3132 3129 3127 3124 3120 3117 3114 3112 3109 3106 3103 3100 3097 3094 3092 3089 3084 3079 3075 3071 3067 3062 3057 3052 3048 3044 3039 3030 3023 3021 3017 3011 3005 2999
3185 3184 3183 3182 3181 3180 3179 3178 3177 3176 3176 3175 3174 3173 3172 3172 3171 3170 3170 3169 3168 3167 3166 3165 3165 3165 3164 3164 3163 3163 3162 3161 3160 3159 3158 3157 3156 3155 3154 3153 3152 3150 3149 3148 3147 3145 3144 3142 3140 3139 3138 3136 3134 3132 3129 3127 3124 3121 3117 3114 3110 3107 3104 3101 3099 3095 3092 3090 3086 3080 3074 3071 3069 3066 3061 3055 3050 3045 3042 3040 3034 3026 3020 3015 3010 3004 2998
3184 3183 3182 3181 3180 3179 3178 3177 3176 3176 3175 3174 3173 3173 3172 3171 3170 3169 3169 3168 3167 3166 3166 3165 3164 3164 3163 3163 3162 3162 3161 3160 3159 3159 3157 3156 3155 3154 3153 3152 3151 3150 3148 3147 3146 3145 3143 3141 3140 3138 3137 3135 3133 3131 3128 3126 3123 3121 3118 3114 3111 3108 3104 3101 3098 3094 3091 3088 3085 3081 3076 3071 3068 3064 3058 3053 3051 3049 3043 3037 3032 3027 3020 3013 3007 3003 2997
3183 3182 3181 3180 3179 3178 3177 3176 3175 3174 3174 3173 3172 3172 3171 3170 3169 3169 3168 3167 3166 3165 3165 3164 3164 3163 3163 3162 3162 3161 3160 3160 3159 3157 3156 3155 3154 3153 3152 3151 3150 3149 3148 3147 3146 3144 3142 3141 3139 3137 3136 3134 3132 3130 3127 3124 3122 3119 3117 3114 3111 3108 3105 3102 3100 3097 3093 3089 3087 3084 3080 3074 3068 3063 3058 3053 3051 3049 3043 3035 3029 3024 3018 3011 3005 3000 2995
3182 3181 3180 3179 3178 3177 3176 3175 3174 3173 3172 3172 3171 3170 3170 3169 3168 3168 3167 3166 3165 3164 3164 3163 3163 3162 3162 3162 3161 3160 3160 3159 3158 3157 3155 3154 3153 3152 3151 3150 3149 3148 3147 3146 3145 3143 3142 3140 3139 3137 3135 3133 3131 3129 3126 3123 3120 3118 3116 3113 3111 3108 3105 3102 3099 3097 3094 3090 3086 3082 3077 3073 3068 3063 3059 3055 3051 3046 3041 3034 3027 3021 3016 3010 3003 2998 2993
3181 3180 3179 3178 3177 3176 3175 3174 3173 3172 3171 3170 3170 3169 3169 3168 3167 3166 3166 3165 3164 3163 3163 3162 3162 3161 3161 3161 3160 3160 3159 3158 3157 3156 3155 3154 3152 3151 3150 3149 3148 3147 3146 3145 3144 3143 3141 3140 3138 3136 3134 3132 3130 3127 3125 3122 3119 3117 3115 3112 3109 3106 3103 3099 3096 3093 3091 3087 3083 3079 3074 3071 3066 3061 3056 3052 3048 3043 3038 3032 3026 3020 3015 3009 3002 2996 2991
3180 3179 3178 3177 3176 3175 3174 3173 3172 3171 3170 3170 3169 3168 3168 3167 3166 3165 3164 3164 3163 3163 3162 3161 3161 3161 3160 3160 3160 3159 3158 3157 3156 3155 3154 3153 3152 3150 3149 3148 3147 3146 3145 3144 3143 3141 3140 3138 3137 3135 3133 3131 3129 3126 3124 3121 3118 3115 3113 3110 3107 3104 3101 3097 3094 3090 3087 3083 3080 3077 3072 3067 3063 3058 3053 3049 3045 3040 3035 3029 3023 3018 3013 3009 3002 2995 2989
3179 3178 3177 3176 3175 3174 3173 3172 3171 3170 3169 3168 3167 3167 3166 3165 3165 3164 3163 3163 3162 3162 3161 3160 3160 3160 3160 3159 3159 3158 3157 3156 3155 3154 3153 3152 3151 3150 3148 3147 3146 3145 3144 3143 3141 3140 3139 3137 3136 3134 3132 3130 3128 3125 3123 3120 3117 3114 3111 3109 3105 3102 3099 3095 3091 3088 3084 3080 3076 3072 3068 3064 3061 3055 3050 3045 3041 3037 3032 3027 3021 3016 3011 3007 3001 2994 2987
3179 3178 3177 3176 3174 3173 3172 3171 3169 3168 3167 3166 3166 3165 3164 3164 3163 3163 3162 3162 3161 3160 3160 3159 3159 3159 3159 3158 3158 3157 3156 3155 3154 3153 3152 3151 3150 3149 3147 3146 3145 3144 3143 3141 3140 3138 3137 3136 3134 3132 3131 3128 3126 3124 3121 3119 3116 3113 3110 3107 3104 3100 3097 3093 3089 3085 3081 3077 3073 3068 3063 3060 3057 3052 3046 3042 3038 3033 3029 3024 3019 3014 3009 3003 2998 2993 2987
3179 3178 3177 3175 3174 3173 3171 3170 3168 3167 3166 3165 3164 3164 3163 3163 3162 3161 3161 3160 3160 3159 3159 3159 3158 3158 3158 3157 3157 3156 3155 3154 3153 3152 3151 3150 3149 3147 3146 3145 3144 3143 3141 3140 3138 3137 3136 3134 3133 3131 3129 3127 3125 3122 3120 3117 3114 3111 3108 3105 3102 3098 3095 3092 3087 3082 3078 3075 3070 3066 3061 3057 3054 3050 3045 3041 3036 3032 3027 3023 3018 3012 3005 2999 2994 2991 2986
3180 3178 3177 3176 3174 3173 3171 3170 3168 3167 3165 3164 3163 3163 3162 3161 3161 3160 3160 3159 3159 3159 3158 3158 3158 3157 3157 3156 3156 3155 3154 3153 3152 3151 3150 3148 3147 3146 3145 3144 3142 3141 3140 3138 3137 3136 3134 3133 3131 3129 3127 3125 3123 3120 3118 3115 3112 3110 3107 3104 3101 3097 3093 3090 3086 3081 3077 3073 3069 3065 3060 3056 3052 3049 3044 3039 3034 3030 3025 3021 3016 3009 3003 2997 2992 2988 2984
3180 3178 3177 3176 3174 3172 3171 3169 3168 3166 3165 3164 3163 3162 3161 3161 3160 3160 3159 3159 3159 3158 3158 3157 3157 3156 3156 3155 3155 3154 3153 3152 3151 3149 3148 3147 3146 3144 3143 3142 3141 3139 3138 3137 3135 3134 3133 3131 3130 3128 3126 3124 3121 3118 3116 3113 3110 3108 3105 3102 3099 3095 3091 3088 3084 3079 3075 3072 3067 3063 3059 3055 3051 3047 3042 3037 3033 3029 3024 3019 3013 3007 3001 2997 2992 2987 2982
3179 3178 3177 3175 3174 3172 3171 3169 3167 3165 3164 3163 3162 3161 3161 3160 3160 3159 3159 3158 3158 3158 3157 3157 3156 3156 3155 3155 3154 3153 3152 3150 3149 3148 3147 3145 3144 3143 3142 3141 3139 3138 3136 3135 3134 3133 3131 3130 3128 3126 3124 3122 3119 3116 3113 3111 3108 3105 3103 3099 3096 3093 3089 3085 3081 3077 3073 3070 3066 3062 3058 3053 3049 3045 3041 3036 3031 3027 3022 3016 3011 3005 3000 2996 2991 2986 2980
3179 3177 3176 3174 3173 3172 3170 3168 3167 3165 3164 3162 3161 3161 3160 3160 3159 3159 3158 3158 3158 3157 3157 3156 3156 3155 3154 3154 3153 3152 3151 3149 3148 3147 3145 3144 3143 3141 3140 3139 3138 3136 3135 3133 3132 3131 3129 3128 3126 3124 3122 3120 3117 3114 3111 3108 3105 3102 3100 3097 3094 3090 3087 3083 3079 3075 3071 3068 3064 3060 3057 3053 3048 3044 3039 3034 3029 3025 3019 3014 3009 3005 3000 2995 2989 2984 2979
3179 3177 3176 3174 3173 3171 3169 3168 3166 3165 3163 3162 3161 3161 3160 3160 3159 3159 3158 3158 3157 3157 3156 3156 3155 3154 3153 3152 3152 3150 3149 3148 3147 3145 3144 3142 3141 3140 3139 3137 3136 3134 3133 3132 3130 3129 3128 3126 3124 3122 3120 3118 3115 3112 3109 3107 3103 3100 3097 3095 3091 3088 3085 3081 3078 3074 3070 3066 3062 3058 3055 3052 3047 3042 3037 3032 3026 3021 3016 3012 3008 3004 2999 2994 2989 2983 2978
3179 3177 3176 3174 3172 3170 3169 3167 3166 3165 3163 3162 3161 3160 3160 3159 3159 3159 3158 3158 3157 3156 3156 3155 3154 3153 3152 3151 3150 3149 3148 3147 3145 3144 3142 3141 3140 3138 3137 3136 3134 3133 3132 3130 3128 3127 3125 3124 3122 3120 3118 3116 3113 3110 3107 3105 3102 3098 3095 3092 3089 3086 3083 3080 3076 3072 3068 3065 3060 3056 3052 3049 3045 3040 3035 3029 3024 3019 3014 3010 3007 3002 2997 2992 2988 2983 2977
3178 3176 3175 3173 3171 3170 3168 3167 3166 3165 3164 3162 3161 3161 3160 3159 3159 3158 3158 3157 3156 3156 3155 3154 3153 3152 3151 3150 3149 3148 3147 3145 3144 3142 3141 3139 3138 3137 3135 3134 3132 3131 3130 3128 3127 3125 3123 3122 3120 3118 3116 3114 3111 3107 3104 3102 3099 3096 3093 3090 3087 3084 3081 3078 3074 3070 3066 3063 3059 3054 3050 3046 3042 3038 3033 3027 3022 3017 3013 3008 3004 3000 2995 2990 2986 2981 2976
3178 3175 3173 3171 3170 3169 3168 3167 3166 3165 3164 3162 3162 3161 3160 3159 3159 3158 3157 3157 3156 3155 3155 3154 3153 3152 3150 3149 3148 3146 3145 3144 3142 3141 3139 3138 3137 3135 3134 3132 3131 3129 3128 3126 3125 3123 3121 3120 3118 3115 3113 3111 3109 3105 3102 3100 3097 3094 3091 3088 3085 3082 3079 3075 3072 3068 3064 3061 3056 3052 3048 3044 3040 3035 3031 3026 3021 3016 3011 3006 3001 2997 2993 2989 2984 2979 2974
3177 3174 3172 3171 3169 3168 3167 3166 3165 3164 3164 3163 3162 3161 3160 3159 3159 3158 3157 3157 3156 3155 3154 3153 3152 3151 3150 3148 3147 3145 3144 3142 3141 3139 3138 3137 3135 3134 3132 3130 3129 3127 3126 3125 3123 3121 3119 3118 3115 3113 3111 3109 3107 3104 3101 3098 3095 3092 3089 3086 3083 3080 3076 3073 3070 3066 3062 3058 3054 3050 3046 3042 3037 3033 3029 3024 3019 3014 3009 3004 3000 2995 2991 2986 2982 2977 2972
3176 3174 3172 3170 3169 3168 3167 3166 3165 3165 3164 3163 3162 3161 3160 3159 3159 3158 3157 3156 3155 3155 3154 3152 3151 3150 3149 3147 3146 3144 3143 3141 3139 3138 3136 3135 3133 3132 3130 3129 3127 3125 3124 3122 3121 3119 3117 3115 3113 3111 3109 3107 3104 3101 3099 3096 3093 3090 3087 3084 3080 3077 3074 3071 3067 3064 3060 3056 3052 3047 3043 3039 3035 3030 3026 3022 3018 3013 3007 3002 2998 2993 2988 2984 2979 2974 2970
3175 3173 3172 3170 3169 3168 3167 3166 3166 3165 3164 3163 3162 3161 3160 3159 3158 3158 3157 3156 3155 3154 3153 3152 3151 3150 3148 3146 3145 3143 3142 3140 3138 3136 3135 3133 3132 3130 3129 3127 3125 3124 3121 3120 3119 3117 3115 3113 3110 3108 3107 3105 3102 3099 3097 3094 3091 3088 3084 3081 3078 3075 3071 3068 3065 3061 3057 3053 3049 3045 3040 3036 3033 3029 3025 3021 3016 3011 3005 3000 2995 2991 2986 2981 2977 2972 2968
3175 3174 3172 3171 3170 3168 3168 3167 3166 3165 3164 3163 3162 3161 3160 3159 3158 3157 3156 3155 3155 3154 3153 3152 3151 3149 3147 3146 3144 3142 3141 3139 3137 3135 3134 3132 3130 3129 3127 3125 3124 3122 3119 3117 3116 3115 3112 3110 3107 3106 3104 3102 3100 3097 3094 3092 3088 3085 3082 3079 3075 3072 3069 3065 3062 3058 3054 3050 3046 3042 3038 3034 3030 3026 3022 3019 3014 3009 3003 2998 2993 2989 2984 2980 2975 2970 2966
3176 3174 3172 3171 3170 3169 3168 3167 3166 3165 3164 3163 3162 3161 3160 3159 3158 3157 3156 3155 3154 3154 3153 3151 3150 3149 3147 3145 3143 3141 3140 3138 3136 3134 3133 3131 3130 3128 3126 3124 3122 3120 3117 3115 3114 3113 3110 3107 3105 3103 3101 3099 3097 3094 3091 3089 3086 3082 3079 3076 3072 3069 3065 3062 3058 3054 3051 3047 3043 3039 3035 3031 3027 3023 3020 3016 3011 3006 3001 2996 2991 2987 2982 2978 2973 2969 2964
3176 3175 3173 3172 3170 3169 3168 3167 3166 3165 3164 3163 3162 3161 3160 3159 3158 3157 3156 3155 3154 3154 3153 3151 3150 3148 3147 3145 3143 3141 3139 3137 3135 3133 3131 3130 3128 3127 3125 3123 3121 3118 3116 3114 3112 3111 3108 3105 3103 3101 3099 3096 3094 3091 3088 3085 3082 3079 3076 3073 3069 3066 3062 3059 3055 3051 3047 3043 3040 3036 3032 3028 3024 3020 3016 3013 3008 3004 2999 2994 2990 2985 2980 2976 2972 2967 2963
3177 3175 3174 3172 3171 3170 3169 3167 3166 3165 3164 3163 3162 3161 3160 3159 3159 3158 3157 3156 3155 3154 3152 3151 3149 3148 3146 3144 3142 3140 3138 3136 3134 3132 3130 3129 3127 3125 3123 3121 3120 3117 3114 3112 3111 3108 3105 3103 3101 3099 3096 3094 3091 3088 3085 3082 3079 3076 3073 3070 3066 3062 3059 3055 3051 3047 3044 3040 3036 3032 3029 3025 3021 3017 3013 3009 3005 3001 2997 2993 2988 2984 2979 2974 2970 2966 2962
3178 3176 3175 3173 3172 3170 3169 3168 3167 3166 3165 3164 3163 3162 3161 3160 3159 3158 3157 3156 3155 3154 3152 3151 3149 3147 3145 3144 3142 3140 3138 3136 3134 3132 3129 3127 3126 3124 3121 3119 3117 3115 3113 3111 3108 3106 3103 3101 3098 3096 3094 3091 3088 3085 3082 3079 3076 3073 3070 3066 3063 3059 3055 3051 3048 3044 3040 3036 3033 3029 3025 3021 3017 3013 3010 3006 3002 2999 2995 2991 2986 2982 2977 2973 2969 2965 2961
3178 3177 3175 3174 3173 3171 3170 3169 3168 3167 3166 3165 3164 3163 3162 3161 3160 3159 3158 3156 3155 3154 3152 3150 3149 3147 3145 3143 3141 3139 3137 3135 3133 3131 3129 3126 3125 3122 3120 3118 3115 3113 3111 3108 3105 3103 3101 3099 3096 3093 3091 3089 3086 3083 3080 3076 3073 3070 3067 3063 3059 3055 3052 3048 3044 3041 3037 3033 3030 3026 3022 3018 3014 3010 3007 3003 3000 2996 2993 2989 2984 2980 2976 2971 2967 2963 2960
3179 3177 3176 3175 3173 3172 3170 3169 3169 3168 3167 3166 3165 3164 3163 3162 3160 3159 3158 3156 3155 3153 3151 3150 3148 3146 3144 3142 3140 3138 3136 3134 3132 3130 3128 3125 3123 3121 3119 3116 3114 3112 3109 3106 3103 3100 3099 3097 3094 3091 3088 3086 3083 3080 3077 3074 3070 3067 3063 3060 3056 3052 3048 3045 3041 3037 3034 3030 3027 3023 3019 3015 3011 3008 3004 3000 2997 2994 2990 2986 2982 2978 2974 2970 2965 2961 2958
3179 3178 3176 3175 3174 3173 3171 3171 3170 3169 3167 3167 3166 3164 3163 3162 3160 3159 3157 3156 3154 3153 3151 3149 3147 3145 3143 3141 3139 3137 3135 3133 3131 3129 3127 3124 3121 3119 3117 3115 3112 3109 3106 3103 3100 3098 3096 3094 3092 3088 3086 3083 3080 3077 3074 3071 3067 3064 3060 3057 3053 3049 3045 3041 3037 3034 3031 3028 3024 3020 3017 3013 3008 3005 3001 2998 2994 2991 2988 2984 2980 2976 2972 2968 2964 2960 2956
3179 3178 3177 3176 3174 3173 3172 3171 3170 3169 3168 3167 3165 3164 3163 3161 3160 3158 3157 3155 3153 3152 3150 3148 3146 3144 3142 3140 3138 3136 3134 3132 3129 3127 3125 3123 3120 3117 3115 3112 3109 3107 3104 3101 3098 3096 3094 3091 3088 3085 3083 3080 3077 3073 3070 3067 3064 3060 3057 3053 3049 3045 3042 3038 3034 3031 3028 3025 3021 3018 3014 3010 3006 3002 2998 2995 2992 2988 2985 2982 2978 2974 2970 2966 2962 2958 2954
3179 3178 3177 3176 3174 3173 3173 3171 3170 3169 3168 3166 3165 3163 3162 3160 3159 3157 3156 3154 3153 3151 3149 3147 3145 3143 3141 3139 3136 3134 3132 3130 3127 3125 3123 3121 3119 3116 3113 3110 3107 3104 3102 3099 3095 3093 3091 3088 3085 3082 3079 3076 3073 3070 3066 3063 3060 3056 3053 3049 3046 3042 3039 3035 3031 3028 3025 3022 3018 3015 3011 3007 3003 2999 2995 2992 2989 2986 2982 2979 2976 2972 2968 2964 2960 2956 2952
3179 3177 3176 3175 3174 3173 3172 3171 3170 3168 3167 3165 3164 3163 3161 3160 3158 3156 3155 3153 3152 3150 3148 3146 3144 3141 3139 3137 3135 3132 3130 3128 3126 3123 3121 3119 3117 3114 3111 3107 3104 3102 3100 3096 3093 3090 3087 3085 3082 3079 3076 3073 3070 3066 3063 3059 3056 3053 3049 3046 3042 3039 3035 3032 3028 3025 3021 3018 3015 3011 3008 3004 3000 2996 2993 2989 2986 2982 2979 2976 2973 2969 2965 2962 2958 2954 2950
3178 3177 3176 3175 3173 3172 3171 3170 3169 3167 3166 3164 3163 3161 3160 3158 3157 3155 3154 3152 3150 3148 3146 3144 3142 3140 3137 3135 3133 3130 3128 3126 3124 3121 3119 3117 3114 3111 3108 3104 3101 3099 3096 3093 3090 3086 3083 3080 3077 3075 3072 3069 3066 3063 3059 3055 3052 3049 3045 3042 3039 3035 3032 3029 3025 3021 3018 3015 3011 3008 3004 3001 2997 2994 2990 2986 2983 2979 2976 2973 2969 2966 2962 2959 2955 2951 2947
3176 3175 3174 3173 3172 3171 3170 3168 3167 3166 3164 3163 3161 3160 3159 3157 3155 3153 3152 3150 3148 3146 3144 3142 3140 3138 3135 3133 3130 3128 3126 3123 3121 3118 3116 3114 3111 3108 3104 3101 3099 3096 3093 3090 3087 3084 3080 3076 3073 3070 3068 3065 3062 3059 3055 3052 3048 3045 3042 3038 3035 3032 3028 3025 3022 3018 3015 3011 3008 3004 3001 2997 2994 2990 2987 2983 2979 2976 2973 2969 2966 2962 2959 2956 2952 2949 2945
3175 3174 3173 3172 3171 3169 3168 3167 3165 3164 3163 3161 3160 3158 3157 3155 3153 3151 3150 3148 3146 3144 3142 3140 3138 3136 3133 3130 3128 3126 3123 3120 3117 3114 3112 3110 3108 3104 3100 3097 3095 3092 3088 3085 3083 3081 3077 3073 3069 3066 3064 3061 3059 3055 3052 3048 3045 3042 3038 3034 3031 3028 3024 3021 3018 3014 3011 3007 3004 3000 2997 2993 2990 2987 2983 2979 2976 2972 2969 2966 2963 2959 2956 2952 2949 2946 2942